Temp_Advection
nan nan nan nan nan nan nan nan nan nan nan nan nan nan nan nan nan nan nan nan nan nan nan nan nan nan nan nan nan nan nan nan nan nan nan nan nan nan nan nan nan nan nan nan nan nan nan
nan 1 1 0 -0 0 0 0 0 0 0 0 -0 -0 -0 0 0 -0 -0 -0 -0 -0 -0 -0 -0 -0 -1 -1 -0 0 -0 -0 -0 -0 -0 -0 -0 -0 -0 -0 0 -0 -0 -0 -0 -0 nan
nan 0 0 1 1 1 0 0 0 0 -0 -0 0 0 0 0 -0 -0 -0 -1 -0 -0 -0 -0 -0 -0 -1 -1 -0 0 -0 -0 0 -0 0 0 -0 -0 -0 0 0 -0 -1 -0 -0 0 nan
nan 0 -0 0 0 -0 0 1 0 0 0 0 -0 0 0 0 -0 -0 0 -1 -1 -0 -0 -0 -0 -1 -1 -1 0 -0 -0 -0 -0 -0 0 0 -0 -0 -0 -0 -0 -0 -0 -0 0 0 nan
nan -0 1 0 -1 -1 -0 -0 -0 0 0 0 1 0 -0 0 -0 -0 0 -0 -0 -0 -0 -0 -0 -1 -1 -0 -0 -0 -0 -0 -0 -0 0 -0 -0 -0 -0 -1 -0 -0 -0 -0 0 0 nan
nan -0 -0 0 0 -1 -1 -1 -1 0 0 0 -0 -0 -0 0 0 0 0 0 0 -0 0 0 -1 -1 -2 -0 0 0 -0 -0 -0 -0 -0 -1 -1 -1 -1 -0 -0 -0 0 0 0 -0 nan
nan -0 -0 -0 -0 0 -0 -0 -1 -1 -0 0 0 -0 -0 -0 0 0 0 0 -0 -0 -1 -2 -1 -1 -0 0 0 -0 -0 -0 -0 -1 -1 -1 -0 -1 -0 -0 -0 -0 -0 -1 -0 -0 nan
nan -0 -0 -0 0 0 0 0 -0 -0 -1 0 0 -0 -1 -0 0 0 -0 -0 0 0 -1 -1 -1 -1 0 0 -0 -0 -0 -0 -1 -1 -0 -0 -1 -0 -0 0 0 -0 -0 -1 -0 0 nan
nan -0 0 0 0 0 0 -0 -0 -0 0 0 0 -0 -1 -0 1 -0 -0 0 0 -0 -1 -2 -1 -0 -0 -0 -1 -0 -0 -1 -1 -0 -0 -0 0 -0 0 0 -0 -0 -0 -0 -0 -0 nan
nan -0 -0 0 0 0 0 -0 -0 0 0 0 0 0 0 0 -0 -0 -0 0 -0 -0 -1 -1 -0 0 -0 -0 -0 -1 -1 -1 -0 -0 -0 -0 0 1 0 -0 -0 -0 0 1 0 -0 nan
nan -0 -0 -0 0 0 0 0 -0 0 0 -0 0 -0 -0 -0 -0 -0 -0 0 -0 0 -1 0 -1 -0 -0 0 0 0 0 -0 -0 -0 0 0 0 0 -1 -1 0 0 -0 0 -0 -0 nan
nan -0 -0 -0 -0 -0 -0 0 0 0 0 0 0 0 0 -0 -0 -0 0 0 -0 -0 -2 0 -0 -0 -0 -0 0 -0 0 0 0 0 1 -0 0 -0 -0 0 0 0 0 0 0 0 nan
nan -0 -0 -0 -0 -0 -0 0 0 0 0 0 -0 -0 -0 -0 -0 0 0 0 -0 -2 -1 -0 -0 -0 -0 -1 -0 -0 -0 0 0 0 -1 -0 0 0 0 0 0 0 0 0 0 0 nan
nan -0 -0 -0 -0 -0 0 0 0 0 0 0 -0 -0 -0 -0 0 0 1 -0 -1 -2 -1 0 -0 0 -0 -0 0 0 -0 -0 -1 -1 0 1 -0 -1 0 0 -0 0 0 0 -0 -1 nan
nan -0 -1 -1 -0 0 -0 -0 -0 0 0 0 0 0 -0 -1 0 1 0 -0 -2 -3 -1 1 0 0 -0 0 0 0 -0 -1 -0 0 0 -0 0 0 0 0 0 0 -0 0 0 0 nan
nan -0 -1 -1 -1 -0 -0 -0 -0 0 0 0 0 -0 -1 -1 0 0 -0 -2 -2 -1 -0 1 0 -0 -0 0 0 -0 -0 -0 0 0 -0 0 0 0 0 0 0 0 0 0 0 0 nan
nan -0 -0 -1 -1 -1 -0 -0 -0 0 0 0 0 -0 -1 -0 1 -0 -0 -2 -2 0 0 -0 -0 -0 -0 -0 -0 -0 -0 0 0 0 1 0 0 0 0 -0 0 -0 0 -0 -0 0 nan
nan -0 -0 -1 -1 -1 -1 -0 0 0 0 0 -0 -0 0 1 0 -0 -0 -2 -1 -0 -0 -0 -0 -1 -0 0 0 0 -0 0 0 0 0 0 0 0 -0 0 -0 0 0 0 0 -0 nan
nan -0 -0 -1 -1 -1 -0 -0 0 -0 0 0 -0 0 1 1 -0 -0 -1 -3 -1 -0 -0 0 -0 -0 0 0 -0 -0 1 -1 0 0 0 0 0 -0 0 0 0 0 -0 -0 0 0 nan
nan -0 -1 -1 -1 -0 -0 -0 0 0 0 0 0 0 -0 -0 -1 -1 -2 -1 -0 -1 -0 -0 -1 0 0 0 0 0 0 -0 0 0 -0 0 -0 0 0 -0 -0 0 -0 0 1 0 nan
nan -0 -1 -0 -0 -0 -0 -0 0 -0 0 0 0 -0 -1 -1 -0 -1 -1 0 0 -1 -0 0 0 -1 -0 0 0 1 -0 -0 -0 0 0 0 1 0 -1 -0 0 -0 -0 0 0 0 nan
nan -0 -0 -0 0 -0 -0 -0 -0 -0 0 0 -0 -0 -1 -2 -1 -1 -0 -0 -1 -2 -0 -0 -1 -0 1 0 0 1 0 -0 0 -0 0 0 1 -0 -1 -1 0 -0 -1 0 0 0 nan
nan -0 -0 0 -0 -0 -0 -1 -1 0 0 0 -0 -0 -0 -0 -1 -1 -1 -2 -1 -1 1 0 0 1 1 1 0 1 -0 0 0 -0 -0 0 0 -0 -1 -1 1 0 -0 -1 -1 -0 nan
nan -0 0 0 -1 -0 -0 -1 -1 -0 0 -0 -0 -0 -0 0 -1 -1 -2 -1 -1 1 1 -0 1 1 1 0 -0 0 -0 0 -1 -1 0 0 -0 -1 -0 0 -0 -2 -0 0 0 -1 nan
nan 0 0 -0 -0 0 -0 -0 -1 -0 -0 0 0 -0 0 -1 -0 -0 -0 -0 0 1 -0 0 1 1 1 -0 -0 0 -0 -0 -1 -1 -0 -0 -0 0 0 -0 -1 -1 0 0 0 -1 nan
nan 0 0 -0 -0 -0 -0 -0 -0 -1 0 0 0 0 0 -0 -0 -0 0 0 0 1 -0 1 0 0 -0 -0 -0 -0 -0 -1 -0 0 0 1 1 0 -0 0 -1 -1 -0 -0 0 -0 nan
nan -0 -0 -0 -0 -0 0 -0 -1 -1 1 -0 0 1 1 0 -1 -0 0 0 1 -0 0 0 1 0 -0 0 -0 -1 -1 -0 0 -0 0 0 0 -0 -0 -1 -1 -0 -0 0 0 -0 nan
nan -0 0 -0 -0 0 0 -1 -0 0 0 1 0 1 1 0 1 -0 0 1 1 1 0 -0 -0 -0 -0 -0 -1 -0 -0 -0 -0 0 -1 -0 -0 -1 -0 -0 -2 -0 -1 -0 -0 -0 nan
nan nan nan nan nan nan nan nan nan nan nan nan nan nan nan nan nan nan nan nan nan nan nan nan nan nan nan nan nan nan nan nan nan nan nan nan nan nan nan nan nan nan nan nan nan nan nan
Wind_Speed
29 32 38 32 31 30 29 27 25 24 24 24 23 23 21 20 19 19 19 19 19 21 21 23 23 21 20 11 19 15 15 11 4 5 4 4 5 6 9 4 5 8 3 4 5 6 7
26 28 31 37 36 36 36 33 29 28 26 25 24 24 24 23 22 21 21 21 20 22 21 19 19 16 11 17 7 9 9 5 3 3 3 3 2 3 4 6 8 2 5 7 7 9 7
18 15 21 27 32 32 33 37 34 32 30 28 27 26 25 24 23 23 22 21 21 18 16 17 15 14 13 19 9 8 8 5 5 3 3 2 2 5 2 5 4 7 10 11 12 9 6
34 30 26 19 17 14 24 28 32 31 35 30 32 29 29 28 28 26 23 22 19 17 17 16 14 14 12 12 10 13 10 11 10 5 3 3 2 3 6 5 9 9 11 12 11 7 6
23 23 28 31 26 30 24 20 21 28 27 28 31 33 35 31 29 28 27 23 21 17 15 14 13 8 12 9 8 7 11 12 10 8 6 3 3 6 5 11 10 10 12 11 10 6 1
18 21 20 21 25 24 29 30 27 24 22 19 20 24 30 29 27 28 26 23 20 14 15 13 13 10 18 10 6 6 4 12 13 11 8 9 8 9 10 10 11 9 8 8 11 10 7
16 17 22 19 19 23 22 25 23 24 24 23 19 19 24 22 21 18 16 15 10 7 18 15 9 12 4 4 4 4 7 12 12 15 12 13 10 13 14 3 9 10 11 13 12 4 4
21 19 18 20 19 20 21 20 17 17 20 20 17 18 19 19 16 17 14 8 9 2 9 20 24 26 22 10 10 9 10 13 12 15 16 8 15 11 3 5 10 11 13 14 12 7 6
23 20 23 21 21 20 20 20 17 17 18 22 23 18 18 21 19 17 17 14 9 1 8 22 27 29 26 22 28 24 17 19 13 16 14 16 3 8 4 8 10 13 13 12 11 8 12
25 26 24 25 23 21 19 19 16 18 18 19 20 17 13 13 15 15 15 11 8 4 5 11 10 17 26 24 18 27 31 22 18 20 18 16 20 11 12 15 12 14 12 9 11 11 10
25 24 25 24 27 25 22 20 19 21 18 16 17 18 17 23 5 19 9 13 10 4 5 6 14 3 8 21 1 11 27 29 23 19 14 14 11 11 15 15 10 9 2 7 10 12 14
24 26 26 25 24 27 26 23 21 22 21 19 15 16 21 21 15 9 11 16 15 4 10 7 8 9 12 22 11 1 14 24 21 19 17 20 7 8 13 5 10 4 8 8 9 10 12
38 33 28 28 26 25 27 27 26 23 22 20 18 17 24 22 19 12 20 26 7 10 6 10 8 10 15 14 15 12 15 21 14 15 21 22 20 14 12 11 10 12 9 7 10 8 11
34 38 37 31 28 28 27 27 28 28 24 21 19 18 27 26 21 20 29 10 10 14 26 4 3 9 15 12 16 15 14 17 23 19 10 19 18 24 18 20 12 15 13 8 10 10 10
30 31 35 39 33 28 30 30 29 29 28 23 20 22 29 27 28 22 24 12 14 24 18 26 8 12 14 10 8 14 17 17 17 16 13 10 16 12 4 16 16 9 11 14 15 15 12
30 31 33 33 40 32 31 31 31 31 30 27 22 21 26 31 27 22 14 18 19 17 10 17 20 16 16 17 12 13 14 13 14 16 15 5 4 6 5 5 13 10 6 6 7 5 11
34 32 34 35 37 39 32 33 33 34 33 32 23 12 12 37 27 15 13 22 26 12 4 8 17 21 17 15 18 15 6 3 14 14 15 6 8 9 8 12 14 8 10 7 5 10 11
38 38 40 36 35 35 36 35 32 35 35 36 25 8 16 36 12 12 11 31 35 29 15 8 9 11 15 16 13 18 14 5 3 9 9 10 6 8 17 2 6 14 16 15 7 9 11
36 36 37 36 34 35 40 36 39 35 37 41 11 20 14 30 12 11 13 33 29 23 18 16 12 10 9 12 11 14 10 6 3 9 7 9 7 9 8 5 7 11 13 12 10 7 14
35 35 33 34 34 34 37 39 38 38 36 42 12 6 9 18 25 15 23 24 30 38 18 16 16 14 11 12 10 7 6 2 2 4 3 4 7 8 12 3 6 15 15 14 12 10 13
36 33 32 32 33 35 38 40 42 40 40 43 16 8 14 10 15 19 22 20 26 22 30 20 15 17 18 15 14 8 8 5 3 4 4 2 8 3 7 9 10 12 11 13 13 17 16
36 34 32 32 34 34 35 39 43 44 42 44 7 7 21 20 35 17 20 16 22 29 18 27 23 19 19 15 16 11 6 1 1 4 6 5 6 4 4 10 13 14 16 15 15 20 18
36 35 33 33 33 34 35 39 45 40 46 29 28 14 22 22 22 21 15 28 23 24 28 25 20 19 16 16 2 9 6 8 4 6 11 7 5 2 8 14 10 12 13 18 20 21 18
39 35 33 31 29 30 33 33 41 42 46 23 36 20 7 11 17 20 29 27 24 24 11 25 20 16 12 10 11 2 10 4 10 8 7 5 6 9 5 5 11 13 4 9 15 17 15
40 37 32 31 29 29 29 32 39 40 47 41 31 23 7 8 17 21 26 27 32 23 18 16 15 14 20 12 4 2 3 2 10 14 14 13 10 9 7 11 13 17 13 10 9 13 11
38 38 33 31 29 27 26 29 37 43 52 46 27 31 16 3 9 21 17 28 18 17 14 18 9 13 21 5 3 7 4 6 7 9 7 14 12 11 9 11 14 15 5 6 3 11 8
38 37 33 31 27 25 24 26 27 45 54 46 31 30 23 8 17 12 12 16 26 18 10 14 15 15 22 10 10 9 10 11 8 14 7 9 10 16 13 13 14 13 13 9 6 3 5
38 36 33 31 28 24 24 21 23 42 40 39 34 30 24 13 10 11 13 10 19 22 14 12 9 6 9 7 7 6 8 11 13 15 12 12 8 10 13 16 19 10 14 8 4 3 5
37 36 32 30 29 24 21 18 22 36 36 34 27 24 25 11 4 3 6 6 7 9 6 16 13 11 15 8 9 7 8 6 14 11 17 12 12 9 10 10 6 7 11 12 4 8 7
Wind_Direction
233 240 237 237 241 240 241 241 241 242 245 246 246 247 249 252 257 264 271 278 286 292 298 302 306 311 317 294 284 271 284 282 317 318 300 290 279 280 260 282 264 255 147 230 217 229 252
220 227 239 233 239 241 239 239 239 241 245 251 254 253 253 254 258 264 268 274 281 288 293 299 310 313 307 280 282 280 277 256 241 272 283 304 310 294 291 270 271 59 259 251 247 243 211
251 238 220 216 221 225 229 239 240 239 241 244 252 257 259 259 262 264 269 273 280 283 286 299 312 318 291 259 271 274 264 235 225 223 222 254 290 278 324 241 266 267 262 220 224 216 177
263 266 261 259 246 249 220 215 235 234 243 244 246 248 254 259 264 265 271 274 273 279 285 293 307 308 271 277 246 252 245 241 241 237 211 237 259 263 259 282 246 254 240 259 151 189 147
261 269 268 267 269 269 267 252 233 227 231 229 237 247 254 258 260 260 266 268 266 273 283 285 304 275 272 247 254 238 222 220 220 204 190 185 235 261 230 240 238 204 265 207 156 195 218
264 260 262 260 262 269 270 269 264 257 258 263 269 252 248 245 245 251 256 253 256 270 264 273 257 269 242 243 213 230 227 199 199 189 188 213 231 236 216 237 249 315 203 248 263 154 217
252 257 254 259 260 259 263 264 265 266 269 277 276 262 252 248 250 257 264 268 266 261 230 220 193 236 155 190 242 226 192 179 207 207 218 199 236 224 234 6 329 301 288 278 282 98 276
251 251 254 252 256 264 260 258 252 246 251 259 253 264 265 257 255 262 258 216 217 239 292 249 250 249 238 252 266 221 193 190 197 221 210 198 235 246 62 252 247 251 260 258 264 266 280
254 251 249 249 248 254 263 259 248 229 230 225 233 250 259 257 246 243 249 233 234 328 258 268 243 241 241 231 241 243 207 214 210 231 213 236 339 112 191 210 235 235 254 264 271 288 255
253 256 254 251 248 245 253 254 243 228 229 231 227 235 227 209 221 229 222 217 231 304 279 257 218 234 227 225 255 233 227 221 230 240 235 237 251 225 230 252 245 255 250 241 265 265 271
257 258 253 250 246 246 244 242 244 240 232 234 232 228 209 202 227 205 211 185 156 128 272 22 139 145 183 190 359 211 216 208 230 218 239 226 204 224 234 239 232 259 12 253 258 263 276
261 257 254 248 246 242 239 236 231 242 239 233 226 208 204 202 220 208 188 169 151 184 235 184 149 197 190 205 227 99 201 209 220 240 206 253 205 223 244 205 221 138 197 218 240 253 259
255 255 254 252 247 242 237 233 226 226 239 240 240 217 209 200 202 183 177 158 190 214 189 186 184 184 206 191 211 206 189 196 194 204 227 230 231 207 240 209 201 198 206 238 219 213 249
256 251 252 250 249 243 236 233 226 223 219 227 238 228 212 208 191 190 173 188 219 228 232 89 184 189 207 192 213 210 200 198 211 218 245 217 230 217 203 225 201 212 228 237 247 250 275
256 257 250 249 246 242 237 234 227 222 217 216 222 225 235 221 193 190 182 202 215 236 222 232 181 210 206 201 233 205 221 219 204 215 220 218 220 178 192 210 241 203 224 251 270 271 266
258 253 254 248 246 241 235 232 229 223 213 210 208 219 229 211 200 196 199 210 221 236 278 233 213 216 218 208 203 195 197 216 215 206 226 236 156 211 154 212 228 229 193 195 223 248 251
256 256 257 251 245 239 234 231 233 215 210 206 199 214 235 207 207 207 206 216 229 201 234 243 237 238 231 231 204 204 212 125 201 196 209 244 247 178 170 213 187 188 213 233 274 252 272
251 253 256 251 245 238 233 227 225 221 205 199 198 207 197 193 203 201 198 216 222 238 192 249 287 268 248 238 229 243 223 223 162 186 199 204 224 177 210 170 282 216 216 215 225 250 246
254 251 251 248 241 237 228 228 226 220 208 193 203 199 190 185 206 185 219 229 226 232 231 217 232 231 235 259 238 235 222 72 162 198 195 169 217 195 185 205 215 233 227 247 249 267 263
251 250 248 243 236 237 230 224 224 219 218 196 191 171 188 206 219 215 215 209 219 230 239 248 248 234 217 232 217 222 176 99 113 185 4 176 249 234 243 335 326 215 232 235 234 241 257
248 248 243 241 235 234 230 224 221 221 214 204 198 201 177 187 197 213 221 221 214 209 225 219 247 246 233 229 213 201 131 126 122 200 157 203 252 196 273 293 236 242 241 234 233 251 256
242 245 239 236 233 234 228 228 224 223 220 211 203 208 173 189 201 193 232 220 220 206 205 220 228 224 239 252 263 208 187 5 129 331 184 149 220 43 323 282 279 272 266 268 249 244 254
237 240 237 237 237 236 230 226 220 224 217 206 208 201 195 205 191 201 208 218 218 224 215 215 228 233 238 241 308 174 251 196 172 215 239 186 153 171 250 263 245 262 251 243 250 254 255
232 233 236 234 235 237 227 232 219 221 220 206 194 178 221 198 197 201 212 214 223 227 214 223 215 226 226 137 100 122 234 218 245 219 229 185 165 203 243 211 235 250 245 252 238 254 251
227 229 230 230 229 229 231 231 226 218 217 208 189 171 172 225 216 203 213 218 215 229 221 215 205 251 155 144 137 189 166 184 222 223 219 219 208 233 230 222 256 267 230 208 221 252 247
224 226 226 225 223 226 235 232 223 215 206 191 181 179 176 249 232 216 217 217 213 221 231 221 209 167 159 150 164 195 207 199 206 166 214 225 232 234 233 240 259 267 84 110 180 272 225
217 219 221 219 219 222 231 230 230 210 199 187 183 192 174 188 243 252 216 212 206 193 197 193 177 183 188 210 229 231 233 226 228 204 164 203 224 230 235 249 256 269 148 155 230 290 135
212 215 215 213 215 216 222 228 197 191 170 174 171 174 169 174 195 239 202 204 208 213 208 184 163 229 199 215 206 221 232 238 242 236 178 191 201 219 234 244 249 232 142 213 256 170 182
205 208 208 206 212 211 216 202 185 169 169 166 147 162 181 155 162 141 165 185 203 248 239 212 216 178 207 222 228 241 240 236 236 241 238 224 221 235 222 231 252 187 196 218 264 275 236
Height
1507 1509 1511 1515 1517 1519 1521 1523 1525 1527 1529 1530 1531 1532 1533 1533 1533 1534 1533 1533 1532 1532 1530 1529 1528 1526 1524 1526 1522 1514 1514 1515 1514 1515 1515 1513 1511 1509 1503 1502 1503 1499 1498 1503 1504 1506 1506
1501 1503 1505 1507 1511 1512 1515 1516 1519 1522 1524 1525 1527 1528 1529 1529 1529 1530 1530 1530 1529 1530 1528 1526 1525 1523 1526 1524 1518 1516 1513 1514 1514 1515 1515 1513 1511 1511 1508 1506 1503 1503 1502 1500 1501 1502 1504
1496 1497 1499 1500 1503 1504 1508 1509 1513 1516 1518 1520 1522 1525 1526 1526 1526 1525 1526 1526 1526 1526 1525 1524 1522 1521 1522 1517 1515 1515 1513 1515 1514 1514 1512 1514 1513 1512 1509 1505 1506 1504 1501 1494 1495 1497 1499
1491 1493 1494 1496 1498 1501 1501 1502 1506 1508 1512 1515 1517 1519 1522 1522 1522 1523 1523 1524 1523 1524 1523 1521 1521 1522 1516 1513 1512 1510 1512 1511 1512 1513 1513 1512 1512 1511 1510 1508 1504 1501 1496 1493 1484 1496 1499
1486 1487 1489 1491 1492 1496 1496 1499 1500 1501 1506 1508 1511 1513 1517 1516 1519 1519 1521 1521 1519 1521 1520 1520 1521 1523 1510 1507 1509 1508 1508 1508 1511 1510 1511 1510 1512 1509 1509 1504 1494 1491 1489 1484 1487 1493 1492
1484 1484 1487 1487 1484 1488 1489 1493 1494 1497 1500 1503 1506 1508 1510 1512 1514 1515 1516 1516 1516 1517 1517 1518 1519 1523 1505 1506 1506 1505 1504 1506 1509 1509 1509 1510 1508 1504 1498 1495 1493 1484 1485 1481 1486 1488 1496
1480 1482 1484 1484 1482 1486 1485 1488 1489 1491 1494 1497 1502 1505 1506 1508 1509 1511 1513 1514 1517 1515 1513 1508 1505 1501 1501 1505 1504 1503 1502 1504 1508 1508 1500 1502 1501 1494 1482 1487 1493 1494 1492 1488 1481 1485 1501
1475 1477 1479 1481 1481 1484 1483 1486 1485 1486 1489 1491 1498 1501 1504 1504 1506 1509 1510 1510 1510 1511 1507 1503 1499 1498 1499 1502 1504 1499 1503 1502 1502 1500 1495 1498 1496 1484 1490 1495 1498 1496 1494 1490 1484 1486 1497
1471 1472 1475 1477 1479 1480 1482 1482 1481 1481 1484 1488 1491 1495 1499 1503 1505 1507 1506 1506 1509 1508 1506 1494 1489 1490 1493 1497 1494 1495 1498 1496 1495 1494 1489 1492 1482 1491 1495 1494 1496 1492 1492 1487 1487 1485 1488
1466 1467 1469 1471 1474 1476 1477 1478 1479 1480 1481 1487 1486 1491 1494 1499 1506 1505 1505 1505 1507 1510 1505 1479 1477 1478 1483 1489 1484 1485 1486 1493 1490 1489 1486 1485 1484 1485 1491 1492 1487 1489 1480 1489 1491 1492 1488
1460 1461 1463 1466 1468 1470 1472 1474 1477 1479 1481 1484 1483 1487 1491 1495 1500 1500 1502 1505 1509 1512 1507 1462 1468 1476 1476 1479 1476 1475 1478 1482 1482 1484 1486 1479 1486 1490 1487 1482 1484 1487 1489 1491 1490 1489 1486
1454 1455 1457 1459 1462 1464 1467 1470 1472 1477 1479 1480 1482 1483 1489 1491 1496 1498 1500 1505 1510 1516 1496 1463 1467 1473 1474 1474 1475 1476 1475 1479 1481 1480 1484 1481 1482 1485 1483 1483 1486 1485 1490 1489 1488 1488 1491
1447 1450 1451 1454 1456 1458 1461 1463 1466 1471 1475 1478 1480 1480 1483 1487 1492 1494 1497 1502 1507 1491 1462 1457 1461 1464 1467 1467 1471 1475 1474 1473 1472 1482 1479 1479 1479 1482 1485 1486 1487 1487 1485 1489 1488 1486 1484
1439 1442 1444 1446 1449 1452 1454 1459 1461 1465 1469 1474 1478 1480 1481 1482 1486 1490 1494 1497 1494 1457 1459 1454 1458 1461 1462 1458 1467 1470 1468 1465 1467 1463 1461 1469 1479 1472 1477 1478 1480 1482 1479 1482 1484 1476 1465
1431 1432 1435 1438 1441 1444 1448 1451 1455 1459 1464 1468 1472 1475 1475 1477 1481 1484 1488 1487 1470 1459 1448 1452 1458 1462 1460 1457 1460 1465 1464 1459 1456 1459 1465 1459 1464 1464 1473 1477 1475 1478 1484 1476 1482 1478 1482
1422 1424 1426 1429 1432 1436 1440 1444 1448 1453 1457 1463 1466 1471 1468 1474 1477 1480 1480 1472 1460 1453 1453 1447 1452 1452 1451 1455 1462 1461 1457 1451 1454 1457 1459 1458 1472 1470 1478 1480 1478 1477 1473 1487 1485 1493 1488
1413 1415 1417 1420 1422 1427 1432 1436 1440 1445 1452 1456 1463 1465 1460 1466 1472 1473 1469 1461 1457 1453 1458 1454 1451 1449 1447 1446 1450 1452 1447 1454 1453 1456 1460 1460 1463 1478 1481 1478 1473 1482 1479 1478 1474 1473 1480
1403 1405 1407 1409 1413 1417 1424 1428 1433 1436 1443 1448 1454 1455 1452 1458 1465 1463 1464 1452 1458 1454 1458 1458 1457 1446 1446 1448 1445 1448 1448 1447 1459 1459 1464 1462 1464 1475 1474 1468 1470 1466 1470 1471 1483 1479 1471
1394 1396 1398 1401 1404 1408 1414 1420 1425 1430 1432 1439 1442 1445 1447 1453 1451 1455 1459 1454 1456 1454 1451 1456 1456 1451 1450 1451 1453 1448 1446 1463 1465 1463 1461 1465 1465 1468 1471 1476 1472 1470 1466 1465 1465 1470 1475
1383 1386 1388 1391 1394 1399 1404 1411 1417 1422 1427 1431 1436 1436 1443 1445 1447 1447 1445 1441 1451 1454 1453 1455 1453 1450 1450 1452 1451 1451 1454 1465 1467 1465 1467 1465 1462 1463 1465 1471 1466 1468 1464 1464 1469 1476 1472
1373 1376 1378 1381 1385 1391 1396 1402 1408 1413 1420 1424 1421 1417 1421 1434 1437 1441 1439 1434 1440 1446 1449 1455 1457 1454 1450 1451 1448 1451 1458 1466 1468 1468 1467 1467 1466 1471 1468 1464 1469 1468 1463 1463 1469 1465 1471
1363 1367 1370 1374 1378 1382 1387 1392 1399 1405 1411 1415 1412 1412 1415 1419 1429 1439 1437 1437 1433 1433 1441 1444 1447 1449 1453 1454 1453 1457 1462 1470 1467 1470 1466 1469 1473 1481 1481 1467 1465 1467 1463 1461 1463 1463 1467
1353 1357 1362 1365 1369 1373 1378 1383 1389 1395 1401 1398 1406 1407 1408 1410 1415 1424 1432 1427 1428 1429 1433 1440 1444 1446 1451 1453 1458 1466 1469 1469 1470 1475 1472 1470 1472 1484 1481 1466 1464 1469 1464 1462 1459 1456 1457
1343 1348 1353 1357 1361 1365 1369 1374 1379 1385 1391 1391 1398 1407 1409 1401 1403 1413 1418 1426 1429 1429 1436 1438 1443 1449 1454 1457 1461 1469 1470 1467 1470 1466 1468 1467 1471 1470 1466 1468 1472 1452 1452 1451 1453 1451 1449
1333 1339 1344 1350 1354 1358 1363 1366 1370 1376 1385 1386 1391 1399 1407 1404 1401 1406 1413 1417 1426 1430 1439 1436 1442 1448 1450 1456 1464 1467 1468 1469 1463 1460 1462 1468 1463 1463 1466 1460 1452 1445 1444 1451 1454 1450 1446
1324 1331 1337 1343 1348 1352 1356 1358 1362 1369 1373 1376 1385 1393 1402 1411 1404 1403 1408 1413 1417 1426 1432 1434 1442 1447 1450 1453 1459 1460 1456 1448 1447 1448 1453 1460 1463 1465 1456 1457 1453 1437 1442 1444 1450 1449 1439
1315 1323 1330 1336 1342 1347 1349 1351 1353 1359 1363 1374 1380 1392 1401 1412 1409 1409 1411 1410 1417 1427 1431 1437 1440 1445 1447 1445 1448 1446 1441 1436 1442 1440 1457 1460 1462 1459 1454 1450 1439 1434 1440 1449 1454 1444 1441
1308 1316 1324 1331 1338 1343 1345 1347 1349 1358 1355 1366 1379 1389 1398 1406 1411 1413 1412 1414 1416 1419 1426 1433 1440 1443 1441 1443 1442 1435 1432 1430 1431 1430 1438 1446 1452 1450 1447 1444 1440 1433 1441 1446 1439 1440 1442
1301 1311 1319 1327 1335 1341 1343 1346 1346 1352 1362 1370 1381 1388 1398 1405 1410 1411 1413 1414 1418 1420 1421 1426 1430 1429 1438 1433 1427 1425 1426 1427 1428 1433 1430 1435 1435 1434 1435 1432 1430 1431 1434 1438 1439 1439 1442